Location: Unspecified
(0.0000°N, 0.0000°E)
Time: 04:53:13
(UTC+00:00)

Hubble Space Telescope - Pass Details

Date: 30 November 2020
Orbit: 536 x 540 km, 28.5° (Epoch: 03 December)

Event Time Altitude Azimuth Distance (km) Brightness Sun altitude
Exits shadow 04:54:53 12° 253° (WSW) 1,641 2.8 -12.5°
Maximum altitude 04:57:31 21° 209° (SSW) 1,242 2.6 -11.9°
Drops below altitude 10° 05:00:39 10° 159° (SSE) 1,786 4.1 -11.2°
Sets 05:03:21 0° 142° (SE) 2,679 5.5 -10.5°
